Location: Colle Santa Colomba
(42.0333°N, 12.5667°E)
Time: 20:40:13
(UTC+00:00)

Cosmos 1447 Rocket - Pass Details

Date: 25 October 2021
Orbit: 954 x 996 km, 82.9° (Epoch: 04 December)

Event Time Altitude Azimuth Distance (km) Brightness Sun altitude
Rises 17:30:54 0° 356° (N) 3,642 7.5 -15.1°
Reaches altitude 10° 17:33:27 10° 360° (N) 2,691 6.8 -15.6°
Maximum altitude 17:39:31 59° 79° (E) 1,099 4.4 -16.7°
Drops below altitude 10° 17:45:33 10° 159° (SSE) 2,683 6.6 -17.8°
Sets 17:48:05 0° 163° (SSE) 3,629 7.3 -18.3°
